Theta_e
317 318 317 316 312 309 308 308 309 310 311 310 310 310 310 310 311 311 309 307 303 303 303 302 302 302 302 301 301 300 299 299
315 314 314 314 311 309 308 308 308 310 311 311 311 311 311 311 310 310 309 308 303 302 302 302 301 301 300 299 299 299 298 297
310 311 312 312 311 310 309 308 308 310 311 311 311 311 312 312 311 310 307 304 303 302 302 301 301 300 299 299 298 297 296 296
308 309 310 311 311 311 310 308 308 310 310 311 311 311 312 312 311 309 306 305 304 303 302 301 301 300 299 297 296 296 295 295
310 309 309 311 311 311 310 308 309 310 310 311 311 312 312 312 312 309 306 304 303 303 302 301 300 298 297 296 296 296 295 295
310 308 310 310 311 311 311 308 309 309 311 311 311 312 312 312 312 310 306 304 303 302 301 300 298 297 296 296 296 296 295 295
314 310 310 310 310 311 311 309 310 310 311 311 311 311 312 312 312 309 305 303 302 301 300 298 297 297 296 296 295 294 293 292
310 307 309 309 310 311 311 311 310 311 311 311 310 311 312 312 312 310 305 303 301 299 298 297 296 296 295 293 292 291 289 288
311 308 309 309 310 310 311 311 311 311 311 311 311 311 312 312 311 308 304 302 299 297 296 296 296 293 292 291 289 287 285 285
307 308 309 309 310 310 311 311 311 312 312 311 311 311 310 310 308 305 302 298 296 296 297 296 292 291 289 288 286 285 284 284
309 309 308 310 310 310 310 311 311 311 311 311 311 310 309 308 306 301 298 297 297 298 294 291 290 288 287 286 284 284 283 283
308 309 310 309 310 310 310 311 311 310 310 309 308 306 304 302 299 298 297 298 296 292 290 289 287 286 285 284 283 283 283 282
305 306 307 308 308 308 309 309 309 307 306 304 302 299 298 298 297 296 296 295 290 289 288 286 285 284 283 283 283 282 281 281
305 304 303 302 303 302 302 302 302 301 301 300 298 297 297 296 294 294 291 289 287 286 286 285 284 283 283 282 282 281 280 280
302 300 299 299 299 299 298 297 297 297 298 297 296 295 294 293 290 288 287 286 286 285 285 284 284 283 282 282 281 281 279 279
301 299 297 297 296 296 295 295 295 296 296 294 292 291 290 289 287 286 286 285 285 285 284 284 283 282 282 281 280 279 278 278
300 298 297 296 294 293 293 293 294 295 293 291 289 288 287 286 285 285 285 284 284 284 284 283 282 281 281 281 280 278 278 278
300 298 296 294 293 293 293 293 293 292 290 288 288 287 286 285 284 284 284 283 283 283 283 282 281 281 281 281 280 278 278 278
298 296 294 293 293 293 292 291 291 290 288 287 286 286 285 284 284 283 283 283 282 282 281 281 280 280 281 280 279 278 278 278
Wind_Speed
28 29 31 31 27 24 24 24 25 22 21 20 18 15 13 12 10 8 8 8 7 7 10 11 11 14 18 19 20 21 23 20
25 27 29 31 28 26 27 27 25 25 24 22 19 17 14 12 10 8 6 5 6 6 8 9 12 16 18 18 19 20 21 21
17 23 29 32 32 29 28 28 28 26 24 22 20 18 14 13 10 8 6 5 6 5 6 8 11 13 14 17 18 17 15 17
11 22 30 34 35 33 30 29 29 26 23 21 18 18 15 13 11 10 9 6 4 4 6 7 9 11 13 13 14 14 12 10
12 20 25 35 37 34 30 29 30 26 24 23 21 22 19 15 14 10 9 7 5 4 5 5 7 9 11 11 10 10 9 8
15 24 31 30 36 37 32 30 29 27 25 23 20 19 18 12 13 12 11 9 5 4 3 4 7 8 8 7 8 8 7 6
13 16 21 28 33 36 34 32 30 27 25 22 19 18 18 15 15 15 13 9 7 5 5 4 5 6 7 7 6 7 9 9
8 14 22 28 34 37 36 33 31 28 24 23 20 18 15 15 17 17 15 11 8 7 6 6 7 7 7 7 8 9 10 12
8 14 20 24 31 36 36 35 31 28 24 22 18 15 12 12 13 14 11 10 10 10 9 8 7 5 7 8 9 10 11 13
6 12 20 23 26 32 35 33 30 27 24 19 15 11 10 10 14 16 15 15 15 10 6 6 7 7 7 9 10 11 12 13
6 7 10 17 22 26 27 27 27 24 23 19 16 14 13 16 19 20 18 15 10 5 7 7 7 6 7 8 10 11 12 13
6 8 5 11 15 21 23 24 25 24 23 23 22 21 21 23 24 20 15 9 6 7 6 5 5 6 7 8 9 11 12 13
6 12 16 18 19 22 26 28 29 28 29 30 29 29 27 24 20 15 9 6 8 6 4 5 6 6 6 8 10 11 13 15
7 13 15 18 21 24 27 29 32 33 35 35 32 28 24 20 15 10 9 8 6 7 6 7 6 6 7 8 10 13 15 16
8 9 15 18 22 25 29 31 34 36 36 33 30 25 20 16 14 12 9 8 8 8 7 7 6 6 7 10 14 16 16 16
8 8 14 18 22 25 28 33 35 35 33 30 27 23 19 17 14 11 10 10 10 9 8 5 4 6 9 12 14 15 16 17
10 13 17 18 22 26 29 33 33 31 30 28 25 22 19 15 13 12 12 12 10 8 6 4 4 7 9 10 13 17 15 14
12 14 19 20 24 31 32 32 30 28 27 25 23 20 17 14 14 13 13 11 9 7 5 3 5 7 8 10 11 17 13 13
14 20 22 25 31 33 32 30 28 27 26 24 20 17 16 15 14 13 11 8 6 6 4 3 5 6 7 9 12 15 12 12
Wind_Direction
204 205 201 195 192 189 183 177 173 171 163 159 154 151 146 142 145 139 124 110 100 86 79 69 52 44 43 36 32 28 26 21
202 203 200 193 192 190 189 183 180 177 174 170 168 163 159 154 150 146 143 129 109 89 73 63 49 42 41 34 29 23 23 18
184 194 195 195 193 194 191 188 184 185 186 184 181 176 172 169 162 156 149 137 114 94 78 65 54 46 38 31 29 32 31 27
182 184 191 196 197 195 196 193 189 189 189 184 180 181 174 174 176 169 158 149 130 101 81 66 50 37 33 30 29 34 30 28
185 182 188 198 200 198 198 195 192 193 192 191 191 186 181 198 194 180 164 157 147 112 86 67 43 34 35 34 30 33 23 9
190 191 196 195 200 200 199 196 196 197 197 201 203 194 200 203 196 187 177 168 158 134 107 66 52 47 35 17 2 359 7 358
195 190 185 190 199 201 199 198 200 200 199 201 206 201 205 207 197 191 181 172 165 146 136 103 63 35 12 5 12 34 47 54
165 166 176 182 191 200 199 199 201 201 202 205 210 215 225 225 213 198 180 172 152 143 115 77 49 47 50 63 55 48 41 38
191 184 181 180 186 196 197 199 199 199 201 206 210 216 230 214 207 188 170 160 150 124 104 85 60 51 54 50 48 47 36 26
124 157 177 182 184 192 196 197 197 196 197 198 195 200 199 184 162 162 156 134 117 109 78 31 74 50 46 47 46 41 27 17
57 85 168 185 192 192 191 194 190 188 190 185 178 167 161 153 154 144 131 123 120 57 65 71 49 51 53 45 43 33 17 13
35 55 107 169 175 176 173 175 171 165 164 156 154 144 140 137 132 130 130 114 82 74 71 52 64 72 64 47 37 23 12 3
58 64 85 112 133 145 150 152 151 150 148 143 137 134 133 129 125 115 109 93 94 78 71 87 98 80 59 45 32 15 5 357
71 69 76 90 104 118 130 138 139 141 140 137 132 130 129 123 119 113 100 103 98 110 114 112 104 82 56 38 18 7 0 355
93 86 88 95 104 113 119 122 132 137 136 133 128 127 124 119 116 114 109 105 118 124 130 119 98 70 41 19 7 359 358 356
108 107 105 107 110 111 116 124 132 136 131 128 125 125 124 122 121 119 116 123 126 131 135 118 85 41 24 8 4 3 354 353
128 125 121 122 120 119 123 128 133 135 130 129 131 129 126 125 123 122 126 127 127 127 124 102 56 28 15 10 2 358 353 355
144 138 133 133 129 133 130 136 137 135 132 132 131 129 126 127 127 127 121 119 119 120 112 71 34 21 12 8 357 354 355 352
146 140 134 138 141 140 139 140 140 137 135 135 134 132 131 132 131 124 118 117 114 124 116 69 26 8 4 357 352 357 357 358